Flag for U.S.A. Weather past 2 weeks in Charlotte, North Carolina, U.S.A.

Now
89 °F

Scattered clouds.


Feels Like: 90 °F
Forecast: 68 / 90 °F
Wind: 8 mph from West

Location: Charlotte / Douglas International Airport

Current Time: Jul 6, 2015 at 2:15:46 PM

Latest Report: Jul 6, 2015 at 1:52 PM


Visibility: 10 mi

Pressure: 30.08 "Hg

Humidity: 42%

Dew point: 63 °F

Location of CharlotteLocation

Historic Weather in Charlotte — Graph

°F

Charlotte temperature yesterday

Maximum temperature yesterday: 87 °F (at 1:52 PM)
Minimum temperature yesterday: 72 °F (at 4:52 AM)
Average temperature yesterday: 78 °F

Past Weeks' High & Low Weather Summary

 TemperatureHumidityPressure
High99 °F (Jun 22, 3:52 PM)94% (Jun 26, 9:55 PM)30.13 "Hg (Jun 26, 9:55 PM)
Low60 °F (Jun 29, 4:52 AM)22% (Jun 22, 4:52 PM)29.77 "Hg (Jun 27, 2:52 PM)
Average80 °F62%29.96 "Hg
* Reported Jun 21 1:52 PM — Jul 6 12:52 PM, Charlotte, Weather by CustomWeather, © 2015

Note: Actual official high and low records may vary slightly from our data, if they occured in-between our weather recording intervals... More about our weather records

Advertising

Charlotte weather history for previous 24 hours

 ConditionsComfort  
Time TempWeatherWind HumidityBarometerVisibility
12:52 PM
Mon, Jul 6
88 °FScattered clouds.9 mph43%30.09 "Hg10 mi
11:52 AM85 °FPassing clouds.10 mph50%30.11 "Hg10 mi
10:52 AM82 °FSunny.7 mph58%30.13 "Hg10 mi
9:52 AM79 °FScattered clouds.5 mph69%30.13 "Hg10 mi
8:52 AM76 °FScattered clouds.8 mph77%30.12 "Hg10 mi
7:52 AM72 °FScattered clouds.6 mph87%30.10 "Hg8 mi
6:52 AM69 °FFog.3 mph93%30.08 "Hg6 mi
5:52 AM69 °FPassing clouds.5 mph93%30.07 "Hg8 mi
4:52 AM69 °FPassing clouds.6 mph93%30.06 "Hg8 mi
3:52 AM70 °FPassing clouds.7 mph90%30.06 "Hg9 mi
2:52 AM70 °FPassing clouds.7 mph90%30.05 "Hg10 mi
1:52 AM71 °FPassing clouds.6 mph90%30.05 "Hg10 mi
12:52 AM71 °FPassing clouds.9 mph90%30.05 "Hg10 mi
11:52 PM
Sun, Jul 5
72 °FPassing clouds.7 mph87%30.07 "Hg10 mi
10:52 PM73 °FOvercast.9 mph84%30.07 "Hg10 mi
9:52 PM75 °FPartly cloudy.13 mph76%30.06 "Hg10 mi
8:52 PM79 °FMostly cloudy.15 mph65%30.05 "Hg10 mi
7:52 PM82 °FBroken clouds.17 mph56%30.03 "Hg10 mi
6:52 PM84 °FBroken clouds.13 mph55%30.01 "Hg10 mi
5:52 PM85 °FMostly cloudy.14 mph55%30.02 "Hg10 mi
4:52 PM81 °FMostly cloudy.8 mph67%30.03 "Hg10 mi
3:52 PM77 °FThunderstorms. Cloudy.9 mph82%30.06 "Hg8 mi
2:52 PM84 °FScattered clouds.8 mph59%30.05 "Hg10 mi
Weather by CustomWeather, © 2015

See weather overviewHow to use our weather pages